STARLINK-31916, 59795

Orbit data source: Space-Track

STARLINK-31916, 59795 is a payload satellite owned by SpaceX/Seattle (US) in LEO that was launched on Sat, 18 May 2024 UTC via an FALCON 9 launch vehicle from the Air Force Eastern Test Range (AFETR). Payloads include a variety of satellites, spacecraft, and rockets equipped with specific instruments for various scientific and technological missions. These include communications satellites like Starlink; space stations such as the ISS; scientific satellites like the Hubble; Earth observation satellites from companies like Planet Labs, Umbra, and HawkEye 360; GPS; miniature CubeSats for education and research; and military/defense satellites.

Loading next visibility...
STARLINK-31916 details
Identifier
59795, 2024-093P
Orbit
LEO
Last TLE update18 hours ago
Origin
Flag of USSpaceX/Seattle (US)
ManufacturerSpaceX/Seattle
MissionOperational spacecraft
Bus & MotorSTARLINK V2M, Unknown motor
Mass730 kg wet, ~700 kg dry
Launch date (UTC)
2024-05-18 (8 months ago)
Launch vehicle
FALCON 9
Launch site
Air Force Eastern Test Range (AFETR)
Object type
Payload
Rocket body
Debris
Shape & HBRUnknown
Radar Cross SectionLarge (>1 m²)

Expand to show TLE details & history

TLE from 18 hours ago
0 STARLINK-31916
1 59795U 24093P   25014.53600439 -.00000653  00000-0 -83566-5 0  9994
2 59795  43.0017  61.0434 0001598 257.7675 102.3002 15.40699453 38535
Epoch: 2025-01-14T12:51Z
Definitive object data (Epoch: 2025-01-14T12:51:50.779Z)
Latitude-0.00005°
Longitude113.84047°
Altitude444.05 km
Speed7.647 km/s
True Right ascension04h 04m 10s
True Declination0° 00' 00"
Sunlit
Object was in full shadow at TLE epoch
Visualization TLE readout
Latitude-23.61304°
Longitude-42.70771°
Altitude448.953 km
Speed7.644 km/s
Apparent Right ascension18h 28m 48s
Apparent Declination-32° 08' 28"
Sunlit
Object is in daylight
Visualization observer readout
Local Sidereal Time07:34:06
Azimuth64.525° ENE
Elevation-74.716°
Doppler factor1
Orbital elements
Apogee altitude447.09 km
Perigee altitude444.909 km
Semi-major axis6,824.137 km
Eccentricity0.0001598
Inclination43.0017°
RAAN61.0434°
Arg. of periapsis257.7675°
True anomaly102.31809°
Mean anomaly102.3002°
Eccentric anomaly102.30915°
Mean motion3.8501 °/min
BSTAR-0.0000083566
Orbital period93.5 mins
Loading maneuver chart data...
Loading historical data...
Loading historical data...
Loading historical data...
Loading historical data...
Loading historical data...
Loading historical data...
Loading historical data...

STARLINK-31916 Visibility forecast

Observer location: undefined°, undefined

Span
Click to sort rows by Start time (UTC) header in descending order
Start Az.
Max El. time (UTC)
Max El. Az.
Max El.
End time (UTC)
End Az.
6 mins2025-01-15 07:48:38.910Z264.099° W2025-01-15 07:51:38.910Z337.711° N42.559°2025-01-15 07:54:38.910Z68.999° E
5 mins2025-01-15 09:27:38.910Z292.778° NW2025-01-15 09:29:38.910Z339.069° N36.566°2025-01-15 09:32:38.910Z78.002° E
5 mins2025-01-15 11:06:38.910Z279.535° WNW2025-01-15 11:08:38.910Z149.913° SSE41.264°2025-01-15 11:11:38.910Z117.946° SE
4 mins2025-01-16 05:31:38.910Z194.256° SSW2025-01-16 05:33:38.910Z142.113° SSE24.725°2025-01-16 05:35:38.910Z96.941° ESE
|